Weather History for Glasgow, United Kingdom

Change the Weather History Date:

Tuesday, April 30, 2013

  Actual Average Record
Temperature  
Mean Temperature 44 °F -  
Max Temperature 55 °F 57 °F 66 °F (2011)
Min Temperature 32 °F 42 °F 32 °F (2013)
Degree Days  
Heating Degree Days 22    
Moisture  
Dew Point 34 °F    
Average Humidity 65    
Maximum Humidity 93    
Minimum Humidity 35    
Precipitation  
Precipitation 0.00 in - - ()
Sea Level Pressure  
Sea Level Pressure 30.25 in    
Wind  
Wind Speed 8 mph ()    
Max Wind Speed 16 mph    
Max Gust Speed -    
Visibility 6.2 miles    
Events      
Averages and records for this station are not official NWS values.
T = Trace of Precipitation, MM = Missing Value Source: Averaged Metar Reports

Daily Weather History Graph

Daily Weather History Graph

Search for Another Location

Airport:

Trip Planner

Search our weather history database for the weather conditions in past years. The results will help you decide how hot, cold, wet, or windy it might be!

Date:

Astronomy

Apr. 30, 2013 Rise Set
Actual Time 5:36 AM BST 8:54 PM BST
Civil Twilight 4:52 AM BST 9:39 PM BST
Nautical Twilight 3:52 AM BST 10:39 PM BST
Astronomical Twilight 2:21 AM BST 12:15 AM BST
Moon 1:20 AM BST (4/30) 9:35 AM BST (4/30)
Length of Visible Light 16h 46m
Length of Day
15h 18m
Waning Gibbous, 72% of the Moon is Illuminated
Apr 30
Waning Gibbous
May 2
Last Quarter
May 10
New
May 18
First Quarter
May 25
Full

Hourly Weather History & Observations

Time (BST) Temp. Windchill Dew Point Humidity Pressure Visibility Wind Dir Wind Speed Gust Speed Precip Events Conditions
12:20 AM 42.8 °F 36.6 °F 35.6 °F 76% 30.12 in - WNW 11.5 mph - N/A   Clear
12:50 AM 41.0 °F 36.4 °F 35.6 °F 81% 30.15 in - WNW 6.9 mph - N/A   Clear
1:20 AM 37.4 °F 30.8 °F 33.8 °F 87% 30.15 in - SW 9.2 mph - N/A   Clear
1:50 AM 37.4 °F 31.4 °F 33.8 °F 87% 30.15 in 6.2 mi WSW 8.1 mph - N/A   Unknown
2:20 AM 39.2 °F 35.9 °F 33.8 °F 81% 30.18 in 6.2 mi West 4.6 mph - N/A   Unknown
2:50 AM 37.4 °F 32.1 °F 33.8 °F 87% 30.18 in 6.2 mi West 6.9 mph - N/A   Unknown
3:20 AM 39.2 °F 35.0 °F 33.8 °F 81% 30.21 in - West 5.8 mph - N/A   Clear
3:50 AM 35.6 °F 31.7 °F 32.0 °F 87% 30.21 in - SW 4.6 mph - N/A   Clear
4:20 AM 33.8 °F 28.6 °F 30.2 °F 87% 30.21 in - SW 5.8 mph - N/A   Clear
4:50 AM 35.6 °F 31.7 °F 32.0 °F 87% 30.24 in - West 4.6 mph - N/A   Clear
5:20 AM 33.8 °F 29.6 °F 32.0 °F 93% 30.24 in - WSW 4.6 mph - N/A   Clear
5:50 AM 32.0 °F 26.4 °F 28.4 °F 87% 30.24 in - SW 5.8 mph - N/A   Clear
6:20 AM 35.6 °F 32.8 °F 32.0 °F 87% 30.27 in - WNW 3.5 mph - N/A   Clear
6:50 AM 35.6 °F - 33.8 °F 93% 30.27 in - Calm Calm - N/A   Clear
7:20 AM 39.2 °F 35.9 °F 33.8 °F 81% 30.27 in - SW 4.6 mph - N/A   Clear
7:50 AM 39.2 °F - 33.8 °F 81% 30.27 in - SW 2.3 mph - N/A   Clear
8:20 AM 42.8 °F - 35.6 °F 76% 30.30 in - Variable 2.3 mph - N/A   Clear
8:50 AM 44.6 °F 42.2 °F 35.6 °F 71% 30.30 in - West 4.6 mph - N/A   Clear
9:20 AM 46.4 °F 45.2 °F 35.6 °F 66% 30.30 in - Variable 3.5 mph - N/A   Clear
9:50 AM 48.2 °F - 33.8 °F 58% 30.30 in 6.2 mi Variable 3.5 mph - N/A   Partly Cloudy
10:20 AM 48.2 °F - 33.8 °F 58% 30.30 in 6.2 mi Variable 3.5 mph - N/A   Partly Cloudy
10:50 AM 50.0 °F - 33.8 °F 54% 30.30 in 6.2 mi WSW 5.8 mph - N/A   Partly Cloudy
11:20 AM 50.0 °F - 26.6 °F 40% 30.30 in 6.2 mi North 5.8 mph - N/A   Partly Cloudy
11:50 AM 51.8 °F - 28.4 °F 41% 30.30 in 6.2 mi SW 5.8 mph - N/A   Partly Cloudy
12:20 PM 51.8 °F - 30.2 °F 44% 30.30 in 6.2 mi WSW 5.8 mph - N/A   Partly Cloudy
12:50 PM 53.6 °F - 26.6 °F 35% 30.30 in - WSW 10.4 mph - N/A   Clear
1:20 PM 53.6 °F - 30.2 °F 41% 30.30 in - SSW 10.4 mph - N/A   Clear
1:50 PM 55.4 °F - 32.0 °F 41% 30.30 in - SW 11.5 mph - N/A   Clear
2:20 PM 53.6 °F - 33.8 °F 47% 30.30 in 6.2 mi SW 10.4 mph - N/A   Scattered Clouds
2:50 PM 53.6 °F - 33.8 °F 47% 30.27 in 6.2 mi SSW 12.7 mph - N/A   Scattered Clouds
3:20 PM 53.6 °F - 33.8 °F 47% 30.27 in 6.2 mi SW 15.0 mph - N/A   Scattered Clouds
3:50 PM 51.8 °F - 35.6 °F 54% 30.27 in 6.2 mi West 10.4 mph - N/A   Scattered Clouds
4:20 PM 53.6 °F - 33.8 °F 47% 30.27 in 6.2 mi WSW 13.8 mph - N/A   Scattered Clouds
4:50 PM 53.6 °F - 35.6 °F 51% 30.24 in 6.2 mi WSW 15.0 mph - N/A   Scattered Clouds
5:20 PM 53.6 °F - 35.6 °F 51% 30.24 in 6.2 mi WSW 16.1 mph - N/A   Scattered Clouds
5:50 PM 53.6 °F - 35.6 °F 51% 30.24 in 6.2 mi SW 15.0 mph - N/A   Scattered Clouds
6:20 PM 51.8 °F - 35.6 °F 54% 30.24 in 6.2 mi SW 15.0 mph - N/A   Scattered Clouds
6:50 PM 51.8 °F - 35.6 °F 54% 30.24 in 6.2 mi WSW 12.7 mph - N/A   Scattered Clouds
7:20 PM 50.0 °F - 35.6 °F 58% 30.24 in 6.2 mi WSW 13.8 mph - N/A   Partly Cloudy
7:50 PM 48.2 °F - 33.8 °F 58% 30.24 in 6.2 mi SW 15.0 mph - N/A   Scattered Clouds
8:20 PM 46.4 °F 40.1 °F 33.8 °F 62% 30.24 in 6.2 mi SW 15.0 mph - N/A   Mostly Cloudy
8:50 PM 46.4 °F 40.4 °F 33.8 °F 62% 30.24 in 6.2 mi SW 13.8 mph - N/A   Mostly Cloudy
9:20 PM 46.4 °F 41.1 °F 33.8 °F 62% 30.21 in 6.2 mi SW 11.5 mph - N/A   Mostly Cloudy
9:50 PM 46.4 °F 41.5 °F 35.6 °F 66% 30.21 in - SW 10.4 mph - N/A   Clear
10:20 PM 46.4 °F 41.9 °F 37.4 °F 71% 30.21 in 6.2 mi SW 9.2 mph - N/A   Scattered Clouds
10:50 PM 46.4 °F 41.5 °F 37.4 °F 71% 30.21 in 6.2 mi SSW 10.4 mph - N/A   Partly Cloudy
11:20 PM 46.4 °F 40.1 °F 33.8 °F 62% 30.21 in - SW 15.0 mph - N/A   Clear
11:50 PM 46.4 °F 40.4 °F 35.6 °F 66% 30.21 in - SW 13.8 mph - N/A   Clear